Flight Information

DEPARTURE
HAWTHORNE, CA
Elevation:
65
Runways:
7/25 - 4884x100 - ASPH-G
Active PE Departure:
25
Current PE ATIS:
D
Altimeter:
29.75
Remarks:
ATIS:
118.4 310-675-7945
Ground:
125.1
Tower:
121.1
DESTINATION
,
Elevation:
TPA:
1000 (est.)


6791.4 NM73° True-14° Var59° HDG

Flight Plan:
(click to file on line)

1. Type
2. Aircraft Identification
3. Aircraft Type / Special Equipment
4. True Airspeed
kts
5. Departure Airport
(ICAO code)
6. Arriving Airport
(ICAO code)
7. Cruising Altitude
ft
8. Alternate Airport
(ICAO code)
9. Route of Flight
10. Remarks


00:00:00 Departure ATIS: Destination ATIS:

Clearance Limit:
Route:
Altitude: Expect in minutes
Frequency:
Transponder: (7500 Hijack / 7600 Lost Comms / 7700 Emergency)


KHHR 190153Z 23005KT 10SM CLR 15/12 A2975 RMK AO2 SLP074 T01500117 $
Time: 2021-01-19T01:53:00Z
1611021717
Winds: 230 @ 5 kts
Visibility: 10.0 sm
Clouds (AGL): CLR
Temperature: 15.0 C
Dew Point: 11.7 C
Pressure: 29.749016 in Hgbr


Notes:

Data extracted from FAA Digital Chart Supplement. Effective: 0901Z Thursday, Dec 31, 2020 to 0901Z Thursday, Jan 28, 2021
Current ATIS data is provided courtisy of PilotEdge.